Track VANGUARD 3 now! 10-day predictions VANGUARD 3 is classified as:
1 00020U 59007A 21027.88047863 .00000125 00000-0 54643-4 0 9993 2 00020 33.3437 102.4905 1665789 17.2859 347.8135 11.55794869256573